Regional Weather Roundup
Issued by NWS

Home | Current Version | Previous Version | Text Only | Print | Product List | Glossary On
Versions: 1 2 3 4 5 6 7 8 9 10 11 12 13 14 15 16 17 18 19 20 21 22 23 24 25 26 27 28 29 30 31 32 33 34 35 36 37 38 39 40 41 42 43 44 45 46 47 48 49 50
000
ASUS46 KPQR 021810
RWROR

OREGON REGIONAL WEATHER ROUNDUP
NATIONAL WEATHER SERVICE PORTLAND OR
1100 AM PDT THU OCT 02 2014

NOTE: "FAIR" INDICATES FEW OR NO CLOUDS BELOW 12,000 FEET WITH
NO SIGNIFICANT WEATHER AND/OR OBSTRUCTIONS TO VISIBILITY.

ORZ001>013-021900-
NORTHWEST OREGON


CITY           SKY/WX    TMP DP  RH WIND       PRES   REMARKS
ASTORIA        MOSUNNY   61  52  72 NE8       30.27S
6HR MIN TEMP:  45; 6HR MAX TEMP:  61;

NEWPORT        SUNNY     63  50  63 NE8       30.27S
PORTLAND       PTSUNNY   59  51  75 CALM      30.28F
6HR MIN TEMP:  47; 6HR MAX TEMP:  59;

VANCOUVER WA   SUNNY     55  50  83 CALM      30.28F
6HR MIN TEMP:  45; 6HR MAX TEMP:  55;

SCAPPOOSE      SUNNY     59  50  72 VRB5      30.27F
6HR MIN TEMP:  42; 6HR MAX TEMP:  59;

HILLSBORO      SUNNY     61  49  64 E5        30.27F
6HR MIN TEMP:  42; 6HR MAX TEMP:  61;

AURORA         SUNNY     60  49  66 E7        30.28F
6HR MIN TEMP:  45; 6HR MAX TEMP:  60;

MCMINNVILLE    SUNNY     59  50  72 CALM      30.29R
6HR MIN TEMP:  42; 6HR MAX TEMP:  60;

SALEM          SUNNY     61  48  62 NE6       30.27R
6HR MIN TEMP:  43; 6HR MAX TEMP:  61;

CORVALLIS      SUNNY     61  50  67 E6        30.28S
EUGENE         MOSUNNY   59  48  67 N8        30.27R
6HR MIN TEMP:  40; 6HR MAX TEMP:  59;

$$

ORZ021-028-021900-
SOUTHWEST OREGON


CITY           SKY/WX    TMP DP  RH WIND       PRES   REMARKS
NORTH BEND     SUNNY     64  54  68 N3        30.20S
6HR MIN TEMP:  46; 6HR MAX TEMP:  64;

BROOKINGS      CLEAR     79  45  29 CALM      30.09S
ROSEBURG       SUNNY     58  47  66 VRB3      30.24S
6HR MIN TEMP:  45; 6HR MAX TEMP:  58;

SEXTON SUMMIT  SUNNY     61  40  45 E3        30.25R
6HR MIN TEMP:  52; 6HR MAX TEMP:  62;

MEDFORD        SUNNY     59  45  59 CALM      30.23F
6HR MIN TEMP:  45; 6HR MAX TEMP:  59;

$$

ORZ009-041-021900-
COLUMBIA GORGE


CITY           SKY/WX    TMP DP  RH WIND       PRES   REMARKS
TROUTDALE      SUNNY     59  48  67 CALM      30.27S
6HR MIN TEMP:  45; 6HR MAX TEMP:  59;

THE DALLES     MOSUNNY   62  43  49 N7        30.28R
6HR MIN TEMP:  49; 6HR MAX TEMP:  63;

$$

ORZ029>031-042>050-061>064-021900-
EASTERN OREGON


CITY           SKY/WX    TMP DP  RH WIND       PRES   REMARKS
REDMOND        SUNNY     60  27  28 CALM      30.25S
6HR MIN TEMP:  32; 6HR MAX TEMP:  60;

BEND           CLEAR     59  28  31 CALM      30.27S
KLAMATH FALLS  SUNNY     55  35  47 CALM      30.29S
6HR MIN TEMP:  30; 6HR MAX TEMP:  55;

LAKEVIEW       SUNNY     57  27  30 SE3       30.32S
HERMISTON      SUNNY     63  41  44 VRB3      30.27S
6HR MIN TEMP:  46; 6HR MAX TEMP:  63;

PENDLETON      SUNNY     59  39  47 VRB5      30.27R
6HR MIN TEMP:  41; 6HR MAX TEMP:  59;

JOHN DAY       CLOUDY    55  33  42 W3        30.28R
MEACHAM        SUNNY     54  36  50 CALM      30.27S
6HR MIN TEMP:  29; 6HR MAX TEMP:  54;

LA GRANDE      SUNNY     57  34  41 NE6       30.26S
6HR MIN TEMP:  37; 6HR MAX TEMP:  57;

BAKER CITY     CLOUDY    56  35  45 VRB7      30.27R HAZE
6HR MIN TEMP:  29; 6HR MAX TEMP:  56;

BURNS          SUNNY     54  25  32 SE3       30.28S
6HR MIN TEMP:  22; 6HR MAX TEMP:  55;

ROME             N/A     61  30  31 VRB7      30.26R
6HR MIN TEMP:  38; 6HR MAX TEMP:  61;

ONTARIO        MOSUNNY   56  39  53 CALM      30.27R
6HR MIN TEMP:  35; 6HR MAX TEMP:  57;

$$


USA.gov is the U.S. government's official web portal to all federal, state and local government web resources and services.